West Point Lake Weather Center

Moon Phase Calendar



West Point Lake Water Level
Online Cameras

 


      

Current Conditions in Rockwell Estates
6/19/2024 12:38:27 AM

77°F
Feels Like 77
Clear
Humidity
53%
Pressure
30.15"
Wind
4.6 mph (ESE)
Dew Point
59°F
UV Index
0/10 (Low)
Visibility
6 mi

Hourly Forecast

Date & Time Wed, Jun 19
12:00 AM
Wed, Jun 19
1:00 AM
Wed, Jun 19
2:00 AM
Wed, Jun 19
3:00 AM
Wed, Jun 19
4:00 AM
Wed, Jun 19
5:00 AM
Wed, Jun 19
6:00 AM
Wed, Jun 19
7:00 AM
Wed, Jun 19
8:00 AM
Wed, Jun 19
9:00 AM
Wed, Jun 19
10:00 AM
Wed, Jun 19
11:00 AM
Wed, Jun 19
12:00 PM
Wed, Jun 19
1:00 PM
Wed, Jun 19
2:00 PM
Wed, Jun 19
3:00 PM
Wed, Jun 19
4:00 PM
Wed, Jun 19
5:00 PM
Wed, Jun 19
6:00 PM
Wed, Jun 19
7:00 PM
Wed, Jun 19
8:00 PM
Wed, Jun 19
9:00 PM
Wed, Jun 19
10:00 PM
Wed, Jun 19
11:00 PM
Thu, Jun 20
12:00 AM
Thu, Jun 20
1:00 AM
Thu, Jun 20
2:00 AM
Thu, Jun 20
3:00 AM
Thu, Jun 20
4:00 AM
Thu, Jun 20
5:00 AM
Thu, Jun 20
6:00 AM
Thu, Jun 20
7:00 AM
Thu, Jun 20
8:00 AM
Thu, Jun 20
9:00 AM
Thu, Jun 20
10:00 AM
Thu, Jun 20
11:00 AM
Thu, Jun 20
12:00 PM
Thu, Jun 20
1:00 PM
Thu, Jun 20
2:00 PM
Thu, Jun 20
3:00 PM
Thu, Jun 20
4:00 PM
Thu, Jun 20
5:00 PM
Thu, Jun 20
6:00 PM
Thu, Jun 20
7:00 PM
Thu, Jun 20
8:00 PM
Thu, Jun 20
9:00 PM
Thu, Jun 20
10:00 PM
Thu, Jun 20
11:00 PM
Condition
Clouds

Clear

Clouds

Clouds

Clouds

Clouds

Clouds

Clouds

Clouds

Clouds

Clouds

Clouds

Clouds

Clouds

Clouds

Clouds

Clouds

Clouds

Clouds

Clouds

Clouds

Clouds

Clouds

Clouds

Clouds

Clouds

Clouds

Clouds

Clouds

Clouds

Clouds

Clouds

Clouds

Clear

Clear

Clear

Clear

Clear

Clear

Clear

Clear

Clear

Clear

Clear

Clear

Clear

Clear

Clear
Temperature 77°F77°F76°F75°F73°F71°F68°F67°F69°F73°F76°F79°F82°F85°F88°F89°F90°F89°F89°F87°F83°F80°F78°F76°F73°F71°F71°F69°F68°F67°F66°F66°F70°F74°F78°F82°F85°F88°F90°F92°F92°F92°F89°F87°F82°F76°F74°F73°F
Feels Like 77°F77°F77°F75°F73°F71°F68°F68°F70°F73°F76°F79°F82°F84°F86°F87°F87°F87°F87°F87°F84°F80°F78°F76°F73°F72°F71°F70°F68°F67°F66°F67°F70°F75°F79°F84°F86°F88°F90°F91°F92°F91°F88°F87°F83°F76°F74°F73°F
Cloudiness 20%0%20%40%60%80%100%100%100%100%100%100%100%100%100%100%100%100%100%89%86%95%100%100%100%99%99%99%100%100%79%64%54%1%3%2%1%2%1%0%1%2%2%1%0%2%1%1%
Visibility 6 mi6 mi6 mi6 mi6 mi6 mi6 mi6 mi6 mi6 mi6 mi6 mi6 mi6 mi6 mi6 mi6 mi6 mi6 mi6 mi6 mi6 mi6 mi6 mi6 mi6 mi6 mi6 mi6 mi6 mi6 mi6 mi6 mi6 mi6 mi6 mi6 mi6 mi6 mi6 mi6 mi6 mi6 mi6 mi6 mi6 mi6 mi6 mi
Precipitation 0%0%0%0%0%0%0%0%0%0%0%0%0%0%0%0%0%0%0%0%0%0%0%0%0%0%0%0%0%0%0%0%0%0%0%0%0%0%0%0%0%0%0%0%0%0%0%0%
Humidity 55%53%58%63%70%78%88%89%83%71%62%52%44%39%34%30%28%29%34%40%50%57%61%66%74%80%79%80%82%87%92%92%84%75%65%54%47%41%36%33%32%33%35%41%52%61%63%63%
Dew Point 60°F59°F61°F62°F63°F64°F64°F64°F64°F63°F62°F60°F59°F57°F56°F54°F53°F53°F57°F60°F62°F63°F63°F64°F64°F65°F64°F63°F62°F63°F63°F63°F64°F65°F65°F64°F63°F61°F60°F59°F58°F58°F59°F61°F63°F62°F61°F60°F
Pressure 30.15"30.15"30.15"30.15"30.12"30.12"30.15"30.18"30.18"30.21"30.24"30.21"30.21"30.18"30.15"30.15"30.12"30.12"30.12"30.09"30.12"30.15"30.15"30.18"30.18"30.18"30.18"30.21"30.21"30.21"30.21"30.24"30.27"30.27"30.27"30.24"30.24"30.21"30.18"30.18"30.15"30.15"30.15"30.15"30.15"30.15"30.18"30.18"
Wind Speed 8.2 mph7.7 mph7.2 mph7.8 mph7.2 mph7.1 mph7.2 mph8.3 mph9.4 mph10.6 mph11 mph11.1 mph11.3 mph11.6 mph12 mph11.4 mph12 mph11.5 mph9.5 mph7.9 mph7.6 mph8.8 mph8.7 mph7.1 mph4.6 mph5 mph5.4 mph5 mph5 mph5.1 mph5.4 mph6.7 mph7.8 mph9.4 mph10 mph10.4 mph11 mph10.7 mph9.8 mph9.4 mph10.6 mph11.3 mph10.5 mph8.8 mph6.5 mph5.7 mph5.5 mph5.1 mph
Wind
Direction
108°
ESE
110°
ESE
110°
ESE
107°
ESE
104°
ESE
94°
E
86°
E
85°
E
86°
E
90°
E
94°
E
94°
E
91°
E
87°
E
90°
E
92°
E
95°
E
97°
E
89°
E
71°
ENE
78°
ENE
109°
ESE
106°
ESE
105°
ESE
96°
E
103°
ESE
106°
ESE
85°
E
83°
E
67°
ENE
51°
NE
60°
ENE
70°
ENE
79°
E
85°
E
86°
E
88°
E
89°
E
86°
E
83°
E
84°
E
96°
E
104°
ESE
102°
ESE
92°
E
73°
ENE
71°
ENE
72°
ENE

Daily Forecast

Date High Low Precip. Humidity
Today
Jun 19

Clouds
90 °F
67 °F
0%
39%
Thursday
Jun 20

Clear
92 °F
66 °F
0%
41%
Friday
Jun 21

Clear
93 °F
65 °F
0%
37%
Saturday
Jun 22

Rain
92 °F
71 °F
37%
46%
Sunday
Jun 23

Rain
92 °F
73 °F
81%
44%
Monday
Jun 24

Rain
96 °F
70 °F
84%
36%
Tuesday
Jun 25

Rain
95 °F
70 °F
100%
39%
Wednesday
Jun 26

Rain
91 °F
69 °F
100%
47%
Thursday
Jun 27

Rain
88 °F
70 °F
100%
68%
Friday
Jun 28

Rain
95 °F
72 °F
100%
40%
Saturday
Jun 29

Rain
97 °F
73 °F
60%
41%
Sunday
Jun 30

Clouds
100 °F
74 °F
25%
35%
Monday
Jul 1

Rain
102 °F
72 °F
100%
33%
Tuesday
Jul 2

Rain
92 °F
72 °F
100%
53%
Wednesday
Jul 3

Rain
91 °F
73 °F
100%
57%
Thursday
Jul 4

Rain
87 °F
70 °F
100%
59%

Temperature 8-14 Day Outlook



Precipitation 8-14 Day Outlook




Quick Links
West Point Lake News
West Point Lake Photos
West Point Lake Videos




About Us
Contact Us
Site Map
Search Site
Advertise With Us
   
www.WestPointLake.info
THE WEST POINT LAKE WEBSITE

Copyright 2024, Lakes Online
Privacy    |    Legal